Location: Beutels
(47.8767°N, 9.8584°E)
Time: 17:44:40
(UTC+00:00)

Cosmos 158 Rocket - Pass Details

Date: 19 May 2025
Orbit: 694 x 787 km, 74.0° (Epoch: 16 June)

Event Time Altitude Azimuth Distance (km) Brightness Sun altitude
Rises 20:30:50 0° 205° (SSW) 3,227 7.0 -12.6°
Reaches altitude 10° 20:33:11 10° 206° (SSW) 2,316 6.2 -12.9°
Maximum altitude 20:38:28 78° 293° (WNW) 805 4.2 -13.4°
Drops below altitude 10° 20:43:51 10° 21° (NNE) 2,358 7.0 -14.0°
Sets 20:46:17 0° 22° (NNE) 3,292 7.7 -14.2°
